User: anonymous   Login
Location: Unspecified
(0.0000°N, 0.0000°E)
Time: 20:42:05
(UTC+00:00)
Language:

NATO 4A - Orbit

View from above orbital plane
View from above orbital plane
View from above satellite
View from above satellite

Ground track
Ground track

The orbit data is extracted from the following two-line orbital elements,

1 21047U 91001A   17171.73915883 -.00000116 +00000-0 +00000-0 0  9995
2 21047 013.0805 017.1990 0004105 161.9777 200.8914 00.98284369095881
Epoch (UTC): 20 June 2017 17:44:23
Eccentricity: 0.0004105
inclination: 13.0805°
perigee height: 36335 km
apogee height: 36370 km
right ascension of ascending node: 17.1990°
argument of perigee: 161.9777°
revolutions per day: 0.98284369
mean anomaly at epoch: 200.8914°
orbit number at epoch: 9588

The dashed part of the orbit path shows where the satellite is in the earth's shadow,  

DLR